Simultaneous Nadir Overpasses (SNOs) Predictions

Prediction of SNOs between LANDSAT-8 and METOP-A Satellite Orbit:

Table of predicted SNOs for the next 14.0 days since TLE Epoch: 4/24/2015
Index Date (LANDSAT-8) Time (LANDSAT-8) Lat,Lon (LANDSAT-8) SZA (LANDSAT-8 ) Date (METOP-A) Time (METOP-A) Lat,Lon (METOP-A) SZA (METOP-A ) Distance(km) Time Diff (sec)
1 04/25/2015 05:02:27 -81.10, -36.78 109.93 04/25/2015 05:01:16 -81.11, -36.76 109.96 0.64 71
2 04/25/2015 05:51:52 81.13, 131.32 70.13 04/25/2015 05:51:54 81.14, 131.48 70.16 2.83 2
3 04/28/2015 00:36:38 -81.11, 29.87 110.79 04/28/2015 00:35:34 -81.11, 29.69 110.84 3.15 64
4 04/28/2015 01:26:03 81.14,-162.05 69.27 04/28/2015 01:26:12 81.14,-162.08 69.27 0.64 9
5 04/30/2015 20:10:50 -81.11, 96.25 111.66 04/30/2015 20:09:52 -81.12, 96.43 111.66 3.13 58
6 04/30/2015 21:00:15 81.14, -95.69 68.40 04/30/2015 21:00:31 81.14, -95.73 68.40 0.57 16
7 05/03/2015 15:45:01 -81.11, 162.73 112.49 05/03/2015 15:44:11 -81.11, 162.70 112.51 0.58 50
8 05/03/2015 16:34:26 81.14, -29.24 67.57 05/03/2015 16:34:49 81.14, -29.09 67.60 2.66 23
9 05/06/2015 11:19:11 -81.12,-130.69 113.27 05/06/2015 11:18:29 -81.12,-130.75 113.29 1.02 42




NCC Satellite Simultaneous Nadir Overpasses (SNOs) Prediction Service
